Location: Guadanolo
(41.9167°N, 12.9333°E)
Time: 04:23:21
(UTC+00:00)

NOSS 3-4 (C) - Pass Details

Date: 16 September 2019
Orbit: 913 x 1299 km, 63.4° (Epoch: 21 September)

Event Time Altitude Azimuth Distance (km) Brightness Sun altitude
Rises 19:30:08 0° 323° (NW) 3,864 7.7 -24.5°
Reaches altitude 10° 19:32:41 10° 323° (NW) 2,958 6.9 -25.0°
Maximum altitude 19:39:47 83° 238° (WSW) 1,188 3.8 -26.1°
Enters shadow 19:42:08 49° 156° (SSE) 1,508 4.1 -26.5°
